When you browse on this site, cookies collect data to enhance your experience and personalize the content and advertising you see.
Visit our Privacy Policy to learn more. By continuing to use the site, you agree to this use of cookies and data.
  • In Österreich
  • Länderverzeichnis
  • Für 7 Tage
  • Wassertemperatur
  • Wetterkarte
  • News
  • Widgets
  • user-avatar
    Anmelden

    Stündliche Wetter Troy

    Heute, 5 Juni, Freitag

    Zeit Temperatur Niederschläge Wind Luftdruck Luftfeuchtigkeit
    00:00 +23°C° 0 mm 1 m/S 737 mmHg 75%
    01:00 +22°C° 0 mm 1 m/S 737 mmHg 76%
    02:00 +22°C° 0 mm 1 m/S 737 mmHg 77%
    03:00 +20°C° 0 mm 2 m/S 737 mmHg 78%
    04:00 +22°C° 0 mm 1 m/S 737 mmHg 76%
    05:00 +23°C° 0 mm 1 m/S 738 mmHg 73%
    06:00 +23°C° 0 mm 1 m/S 738 mmHg 71%
    07:00 +25°C° 0 mm 1 m/S 738 mmHg 64%
    08:00 +27°C° 0 mm 2 m/S 739 mmHg 58%
    09:00 +28°C° 0 mm 2 m/S 739 mmHg 51%
    10:00 +29°C° 0 mm 2 m/S 739 mmHg 47%
    11:00 +31°C° 0 mm 2 m/S 738 mmHg 43%
    12:00 +32°C° 0 mm 2 m/S 738 mmHg 39%
    13:00 +33°C° 0 mm 3 m/S 738 mmHg 42%
    14:00 +31°C° 0 mm 3 m/S 738 mmHg 44%
    15:00 +32°C° 0 mm 4 m/S 737 mmHg 47%
    16:00 +30°C° 0.1 mm 4 m/S 737 mmHg 52%
    17:00 +29°C° 0.1 mm 4 m/S 737 mmHg 57%
    18:00 +28°C° 0.1 mm 4 m/S 738 mmHg 63%
    19:00 +27°C° 0 mm 4 m/S 738 mmHg 66%
    20:00 +26°C° 0 mm 3 m/S 738 mmHg 70%
    21:00 +25°C° 0 mm 3 m/S 738 mmHg 74%
    22:00 +24°C° 0 mm 3 m/S 738 mmHg 76%
    23:00 +24°C° 0 mm 3 m/S 738 mmHg 78%

    Morgen, 6 Juni, Samstag

    Zeit Temperatur Niederschläge Wind Luftdruck Luftfeuchtigkeit
    00:00 +22°C° 0 mm 3 m/S 738 mmHg 80%
    01:00 +21°C° 0 mm 3 m/S 738 mmHg 81%
    02:00 +20°C° 0 mm 3 m/S 738 mmHg 81%
    03:00 +19°C° 0 mm 3 m/S 738 mmHg 81%
    04:00 +19°C° 0 mm 3 m/S 739 mmHg 78%
    05:00 +20°C° 0 mm 2 m/S 739 mmHg 75%
    06:00 +20°C° 0 mm 2 m/S 740 mmHg 73%
    07:00 +21°C° 0 mm 3 m/S 740 mmHg 67%
    08:00 +22°C° 0 mm 3 m/S 740 mmHg 62%
    09:00 +25°C° 0 mm 4 m/S 740 mmHg 57%
    10:00 +25°C° 0 mm 4 m/S 741 mmHg 53%
    11:00 +26°C° 0 mm 4 m/S 741 mmHg 50%
    12:00 +27°C° 0 mm 5 m/S 741 mmHg 46%
    13:00 +26°C° 0 mm 5 m/S 741 mmHg 46%
    14:00 +26°C° 0 mm 5 m/S 741 mmHg 46%
    15:00 +26°C° 0 mm 5 m/S 741 mmHg 46%
    16:00 +25°C° 0 mm 4 m/S 741 mmHg 51%
    17:00 +22°C° 0 mm 4 m/S 741 mmHg 56%
    18:00 +21°C° 0 mm 4 m/S 741 mmHg 61%
    19:00 +20°C° 0 mm 4 m/S 741 mmHg 64%
    20:00 +18°C° 0 mm 3 m/S 742 mmHg 67%
    21:00 +17°C° 0 mm 3 m/S 742 mmHg 70%
    22:00 +16°C° 0 mm 3 m/S 742 mmHg 71%
    23:00 +14°C° 0 mm 3 m/S 742 mmHg 71%

    übermorgen, 7 Juni, Sonntag

    Zeit Temperatur Niederschläge Wind Luftdruck Luftfeuchtigkeit
    00:00 +14°C° 0 mm 3 m/S 742 mmHg 72%
    01:00 +13°C° 0 mm 3 m/S 743 mmHg 72%
    02:00 +12°C° 0 mm 3 m/S 743 mmHg 73%
    03:00 +12°C° 0 mm 3 m/S 743 mmHg 73%
    04:00 +12°C° 0 mm 3 m/S 744 mmHg 70%
    05:00 +12°C° 0 mm 4 m/S 744 mmHg 67%
    06:00 +12°C° 0 mm 4 m/S 745 mmHg 64%
    07:00 +14°C° 0 mm 4 m/S 745 mmHg 60%
    08:00 +15°C° 0 mm 4 m/S 745 mmHg 56%
    09:00 +17°C° 0 mm 4 m/S 745 mmHg 53%
    10:00 +18°C° 0 mm 4 m/S 745 mmHg 50%
    11:00 +19°C° 0 mm 4 m/S 745 mmHg 48%
    12:00 +20°C° 0 mm 3 m/S 745 mmHg 45%
    13:00 +20°C° 0 mm 3 m/S 745 mmHg 46%
    14:00 +20°C° 0 mm 3 m/S 744 mmHg 46%
    15:00 +20°C° 0 mm 4 m/S 744 mmHg 47%
    16:00 +19°C° 0 mm 3 m/S 744 mmHg 51%
    17:00 +18°C° 0 mm 3 m/S 744 mmHg 56%
    18:00 +17°C° 0 mm 3 m/S 744 mmHg 60%
    19:00 +16°C° 0 mm 3 m/S 744 mmHg 63%
    20:00 +14°C° 0 mm 3 m/S 745 mmHg 66%
    21:00 +13°C° 0 mm 2 m/S 745 mmHg 69%
    22:00 +13°C° 0 mm 2 m/S 745 mmHg 68%
    23:00 +13°C° 0 mm 2 m/S 744 mmHg 67%

    8 Juni, Montag

    Zeit Temperatur Niederschläge Wind Luftdruck Luftfeuchtigkeit
    00:00 +12°C° 0 mm 2 m/S 744 mmHg 66%
    01:00 +12°C° 0 mm 1 m/S 744 mmHg 69%
    02:00 +12°C° 0 mm 1 m/S 744 mmHg 71%
    03:00 +12°C° 0 mm 1 m/S 744 mmHg 74%
    04:00 +13°C° 0 mm 1 m/S 745 mmHg 72%
    05:00 +14°C° 0 mm 1 m/S 745 mmHg 71%
    06:00 +15°C° 0 mm 1 m/S 745 mmHg 69%
    07:00 +18°C° 0 mm 1 m/S 745 mmHg 62%
    08:00 +19°C° 0 mm 2 m/S 745 mmHg 55%
    09:00 +21°C° 0 mm 2 m/S 745 mmHg 48%
    10:00 +22°C° 0 mm 3 m/S 745 mmHg 46%
    11:00 +24°C° 0 mm 3 m/S 745 mmHg 43%
    12:00 +25°C° 0 mm 3 m/S 745 mmHg 40%
    13:00 +26°C° 0 mm 3 m/S 744 mmHg 40%
    14:00 +26°C° 0 mm 3 m/S 744 mmHg 39%
    15:00 +26°C° 0 mm 3 m/S 744 mmHg 39%
    16:00 +25°C° 0 mm 3 m/S 743 mmHg 41%
    17:00 +24°C° 0 mm 3 m/S 743 mmHg 44%
    18:00 +24°C° 0 mm 3 m/S 743 mmHg 47%
    19:00 +21°C° 0 mm 3 m/S 743 mmHg 50%
    20:00 +20°C° 0 mm 3 m/S 743 mmHg 54%
    21:00 +19°C° 0 mm 3 m/S 743 mmHg 58%
    22:00 +19°C° 0 mm 2 m/S 743 mmHg 60%
    23:00 +18°C° 0 mm 2 m/S 742 mmHg 62%

    9 Juni, Dienstag

    Zeit Temperatur Niederschläge Wind Luftdruck Luftfeuchtigkeit
    00:00 +18°C° 0 mm 2 m/S 742 mmHg 64%
    01:00 +18°C° 0 mm 2 m/S 742 mmHg 67%
    02:00 +18°C° 0 mm 2 m/S 742 mmHg 70%
    03:00 +17°C° 0 mm 2 m/S 742 mmHg 74%
    04:00 +18°C° 0 mm 2 m/S 742 mmHg 72%
    05:00 +19°C° 0 mm 2 m/S 742 mmHg 71%
    06:00 +20°C° 0 mm 3 m/S 742 mmHg 69%
    07:00 +22°C° 0 mm 3 m/S 742 mmHg 62%
    08:00 +25°C° 0 mm 3 m/S 742 mmHg 56%
    09:00 +27°C° 0 mm 3 m/S 742 mmHg 49%
    10:00 +28°C° 0 mm 3 m/S 741 mmHg 48%
    11:00 +30°C° 0 mm 3 m/S 741 mmHg 46%
    12:00 +32°C° 0 mm 4 m/S 741 mmHg 44%
    13:00 +33°C° 0 mm 4 m/S 740 mmHg 46%
    14:00 +33°C° 0 mm 4 m/S 740 mmHg 47%
    15:00 +33°C° 0 mm 4 m/S 739 mmHg 48%
    16:00 +32°C° 0 mm 5 m/S 739 mmHg 54%
    17:00 +30°C° 0 mm 5 m/S 738 mmHg 59%
    18:00 +30°C° 0 mm 5 m/S 738 mmHg 65%
    19:00 +29°C° 0 mm 5 m/S 738 mmHg 65%
    20:00 +28°C° 0 mm 5 m/S 738 mmHg 66%
    21:00 +27°C° 0 mm 5 m/S 737 mmHg 66%
    22:00 +27°C° 0 mm 5 m/S 737 mmHg 65%
    23:00 +27°C° 0 mm 6 m/S 737 mmHg 63%

    10 Juni, Mittwoch

    Zeit Temperatur Niederschläge Wind Luftdruck Luftfeuchtigkeit
    00:00 +27°C° 0 mm 7 m/S 736 mmHg 62%
    01:00 +27°C° 0 mm 7 m/S 736 mmHg 65%
    02:00 +27°C° 0 mm 8 m/S 736 mmHg 69%
    03:00 +26°C° 0 mm 8 m/S 735 mmHg 72%
    04:00 +26°C° 0 mm 8 m/S 736 mmHg 73%
    05:00 +26°C° 0 mm 8 m/S 736 mmHg 74%
    06:00 +24°C° 0 mm 8 m/S 736 mmHg 75%
    07:00 +24°C° 0.3 mm 7 m/S 736 mmHg 77%
    08:00 +24°C° 0.3 mm 7 m/S 736 mmHg 78%
    09:00 +24°C° 0.3 mm 7 m/S 736 mmHg 79%
    10:00 +24°C° 1 mm 7 m/S 736 mmHg 81%
    11:00 +24°C° 1 mm 6 m/S 737 mmHg 82%
    12:00 +23°C° 1 mm 6 m/S 737 mmHg 84%
    13:00 +25°C° 0.6 mm 5 m/S 737 mmHg 77%
    14:00 +25°C° 0.6 mm 5 m/S 738 mmHg 70%
    15:00 +25°C° 0.6 mm 4 m/S 738 mmHg 64%
    16:00 +25°C° 0 mm 4 m/S 738 mmHg 62%
    17:00 +23°C° 0 mm 4 m/S 739 mmHg 61%
    18:00 +24°C° 0 mm 3 m/S 739 mmHg 60%
    19:00 +22°C° 0 mm 3 m/S 740 mmHg 62%
    20:00 +21°C° 0 mm 2 m/S 740 mmHg 64%
    21:00 +20°C° 0 mm 2 m/S 741 mmHg 66%
    22:00 +20°C° 0 mm 2 m/S 741 mmHg 66%
    23:00 +19°C° 0 mm 2 m/S 741 mmHg 66%
    Mehr zeigen